Location: Carrières
(48.9495°N, 2.0407°E)
Time: 22:07:38
(UTC+00:00)

Courier 1B Rocket - Pass Details

Date: 20 April 2024
Orbit: 920 x 1201 km, 28.2° (Epoch: 25 May)

Event Time Altitude Azimuth Distance (km) Brightness Sun altitude
Rises 05:32:47 0° 228° (SW) 3,960 7.6 5.9°
Reaches altitude 10° 05:37:31 10° 202° (SSW) 2,934 7.2 6.7°
Maximum altitude 05:40:24 13° 179° (S) 2,692 7.3 7.1°
Drops below altitude 10° 05:43:12 10° 155° (SSE) 2,848 7.7 7.6°
Sets 05:47:38 0° 128° (SE) 3,731 8.8 8.3°
